Zurück zum Katalog

STARLINK-37140

AktivKommunikationSSO
NORAD 68311·PAYLOAD·🇺🇸 United States

Gestartet Mar 20, 2026 von Vandenberg Space Force Base

Loading…

Nächste Überflüge (nächste 24 Stunden)

TLE

AktuellSource: CelesTrak SupGP

Epoche: Sep 14, 2026, 14:49 UTC

1 68311C 26057T   26257.61784722  .00027679  00000+0  85968-3 0  2574
2 68311  97.2857  23.0761 0000828  94.8242 150.2149 15.33408397    11

Verfolge STARLINK-37140 in Echtzeit mit AllMySat

Download on the App Store